NOAA 16 DEB, 41052

Orbit data source: Space-Track

NOAA 16 DEB, 41052 is space debris in SSO originally from a launch on Thu, 21 Sep 2000 UTC launched from the Air Force Western Test Range (AFWTR). Debris objects in space refer to the collection of defunct objects orbiting the Earth. Examples of debris include non-operational satellites, rocket bodies, and fragments generated from explosions, collisions, or faulty payload assembly.

Loading next visibility...
Identifier
41052, 2000-055K
Orbit
SSO
Country
Flag of USUS
Related business
Manufacturer
Unknown
Mission
Spacecraft
Bus & Motor
Unknown
Mass
Unknown
Launch date (UTC)
2000-09-21 (26 years ago)
Launch vehicle
Unknown
Launch site
Air Force Western Test Range (AFWTR)
Object type
Payload
Rocket body
Debris
Shape & HBR
Unknown shape, 0.1 m
Radar Cross Section
Small (<0.1 m²)

Expand to show TLE details & history
Last TLE update: 7 hours ago

TLE from 7 hours ago
0 NOAA 16 DEB
1 41052U 00055K   26128.25854486  .00000607  00000-0  33511-3 0  9992
2 41052  98.6029 141.3505 0161344 303.5984  54.9876 14.08679340536081
Epoch: 2026-05-08T06:12Z
TLE epoch observation values (Epoch: 2026-05-08T06:12:18.275Z)
Latitude
0.00004°
Longitude
-177.81856°
Altitude
801.027 km
Speed
7.487 km/s
True Right ascension
09h 25m 24s
True Declination
0° 00' 00"
Sunlit
Object was in daylight at epoch
Visualization orbit readout
Latitude
Unknown
Longitude
Unknown
Altitude
Unknown
Speed
Unknown
Apparent Right ascension
Unknown
Apparent Declination
Unknown
Sunlit
N/A
Visualization observer readout
Local Sidereal Time
21:09:56
Azimuth
Unknown
Elevation
Unknown
Doppler factor
Unknown
Orbital elements
Apogee altitude
977.862 km
Perigee altitude
744.262 km
Semi-major axis
7,239.199 km
Eccentricity
0.01613
Inclination
98.6029°
RAAN
141.3505°
Arg. of periapsis
303.5984°
True anomaly
56.51941°
Mean anomaly
54.9876°
Eccentric anomaly
55.75174°
Mean motion
3.52377 °/min
Orbital period
102.16 mins
BSTAR
0.00033511
Loading maneuver chart data...
Computing Atmospheric mass density...
Loading historical data...
Loading historical data...
Loading historical data...
Loading historical data...
Loading historical data...
Loading historical data...
Loading historical data...

Documentation

Showing up to 5 results
|